STARLINK-1780 (46684 NORAD) Tracking and Keplerian Element Data

This shows tracking and keplerian element data for the satellite.

Feedback or suggestion? Click here.




ElementValue
Catalog46684
NameSTARLINK-1780
Epoch Orbit729
Epoch Day335.83336806
Epoch Year2020
RAAN256.285
Inclination53.0555
Eccentricity0.0001163
Argument of Perigee64.7666
Mean Anonmoly42.3806
Mean Motion15.62745016
Decay Rate-2.369E-05
L11 46684U 20073Q 20335.83336806 -.00002369 00000-0 -20059-4 0 9992
L22 46684 53.0555 256.2850 0001163 64.7666 42.3806 15.62745016 7295

Live tracking and technical data element details for STARLINK-1780 (NORAD 46684). STARLINK-1780 can be tracked NOW for your location showing map with azimuth and elevation plus other details from your city location.

Track the satellite on the map from your city or location and see movement details for azimuth, elevation, latitude, longitude, range, height, and movement on the map or in text.







IsCatalogInMostPopularTable: catalog: 46684, numindb: 5
Update: records affected: 1



GetName: 46684 STARLINK-1780

Hit Count: updated at: Tue, 01 Dec 2020 20:45:05 GMT